星链-30425 (STARLINK-30425 )

导读

STARLINK-30425是美国SpaceX星链星座的卫星,于2023年9月12日发射入轨,隶属于第二代星链组网卫星。星链系统旨在提供全球覆盖的低轨卫星互联网服务,该卫星完成部署后,进一步扩充了星链低轨星座的规模,提升了系统全球网络覆盖密度与服务稳定性,可为偏远地区、海上和航空场景提供宽带接入服务。

Basic Information
目录编号:
57850
目录名称:
STARLINK-30425
国际标识:
2023-141L
轨道中心:
EARTH
卫星名称:
星链-30425
卫星全名:
星链-30425 (STARLINK-30425 )
卫星状态:
在轨 (已飞行1010 天)
发射日期:
2023-09-12 UTC
国别 :
美国 (US)
星等 :
--
Orbit Information
数据来源 国际轨道数据 AOE轨道数据
星历时间 2026-06-18T08:19:14+0800
12小时前
查看轨道信息
2026-06-16T07:00:00+0800
2天前
查看轨道信息
半长轴 6853.353km 6853.424km
偏心率 0.0000701 0.0000892
轨道倾角 53.159° 53.158°
近地点辐角 104.632° 130.463°
升交点赤经 178.202° 187.751°
平近点角 255.476° 62.752°
近地点 474.735km 474.675km
远地点 475.697km 475.899km
周期 94.105分钟 94.107分钟
每日圈数 15.301998 15.301761
Detailed Information
固有亮度:
5
最大亮度:
0.3
卫星平台:
Starlink v2.0 mini
覆盖范围:
全球
运营商:
太空探索技术公司
运营商所在国:
美国
制造商(研发单位):
太空探索技术公司
制造商所在国:
美国
使用方式:
暂无
Satellite Introduction
星链(Starlink)计划是由太空探索技术公司(SpaceX)提出的一个巨型低轨卫星互联网星座项目,计划在2019年至2024年间在太空搭建由约1.2万颗卫星组成的“星链”网络,其中1584颗将部署在地球上空550千米处的近地轨道,并从2020年开始工作。该卫星仍在工作。
2D Orbit Map
3D Orbit Map
Orbit Altitude Analysis Chart
Orbit Inclination Analysis Chart
Orbit Comprehensive Analysis Chart
View Comprehensive Chart